• In Kazakhstan
  • List of Countries
  • For 7 days
  • Water Temperature
  • Satellite Maps
  • Weather Map
  • News
  • Weather Widgets
  • user-avatar
    Login

    Hourly Weather Djelfa

    Today, 18 March, Monday

    Time Temperature Precipitation Wind Pressure Humidity
    00:00 +9°C° 0 mm 5 mps 663 mmHg 33%
    01:00 +9°C° 0 mm 5 mps 663 mmHg 34%
    02:00 +8°C° 0 mm 5 mps 662 mmHg 35%
    03:00 +7°C° 0 mm 4 mps 662 mmHg 35%
    04:00 +7°C° 0 mm 4 mps 662 mmHg 37%
    05:00 +6°C° 0 mm 4 mps 662 mmHg 39%
    06:00 +7°C° 0 mm 3 mps 662 mmHg 46%
    07:00 +8°C° 0 mm 4 mps 663 mmHg 43%
    08:00 +11°C° 0 mm 4 mps 663 mmHg 40%
    09:00 +13°C° 0 mm 4 mps 664 mmHg 37%
    10:00 +14°C° 0 mm 5 mps 664 mmHg 33%
    11:00 +15°C° 0 mm 5 mps 664 mmHg 29%
    12:00 +17°C° 0 mm 5 mps 664 mmHg 24%
    13:00 +17°C° 0 mm 5 mps 664 mmHg 23%
    14:00 +17°C° 0 mm 5 mps 664 mmHg 22%
    15:00 +19°C° 0 mm 6 mps 664 mmHg 21%
    16:00 +17°C° 0 mm 6 mps 663 mmHg 25%
    17:00 +15°C° 0 mm 6 mps 663 mmHg 30%
    18:00 +14°C° 0 mm 6 mps 663 mmHg 34%
    19:00 +13°C° 0.1 mm 5 mps 663 mmHg 47%
    20:00 +10°C° 0.1 mm 5 mps 664 mmHg 61%
    21:00 +9°C° 0.1 mm 5 mps 664 mmHg 74%
    22:00 +8°C° 0 mm 5 mps 664 mmHg 75%
    23:00 +8°C° 0 mm 5 mps 664 mmHg 75%

    Tomorrow, 19 March, Tuesday

    Time Temperature Precipitation Wind Pressure Humidity
    00:00 +7°C° 0 mm 5 mps 664 mmHg 76%
    01:00 +7°C° 0 mm 5 mps 663 mmHg 79%
    02:00 +6°C° 0 mm 5 mps 663 mmHg 82%
    03:00 +5°C° 0 mm 5 mps 663 mmHg 84%
    04:00 +5°C° 0 mm 5 mps 663 mmHg 87%
    05:00 +3°C° 0 mm 5 mps 663 mmHg 89%
    06:00 +3°C° 0 mm 5 mps 663 mmHg 92%
    07:00 +3°C° 0 mm 5 mps 663 mmHg 86%
    08:00 +5°C° 0 mm 5 mps 663 mmHg 80%
    09:00 +6°C° 0 mm 5 mps 664 mmHg 74%
    10:00 +6°C° 0 mm 5 mps 663 mmHg 69%
    11:00 +7°C° 0 mm 5 mps 663 mmHg 64%
    12:00 +7°C° 0 mm 5 mps 663 mmHg 59%
    13:00 +8°C° 0 mm 5 mps 663 mmHg 56%
    14:00 +8°C° 0 mm 6 mps 663 mmHg 53%
    15:00 +8°C° 0 mm 6 mps 663 mmHg 50%
    16:00 +7°C° 0.1 mm 6 mps 663 mmHg 54%
    17:00 +7°C° 0.1 mm 5 mps 663 mmHg 57%
    18:00 +6°C° 0.1 mm 5 mps 663 mmHg 61%
    19:00 +5°C° 0 mm 5 mps 663 mmHg 65%
    20:00 +5°C° 0 mm 5 mps 664 mmHg 68%
    21:00 +3°C° 0 mm 5 mps 664 mmHg 72%
    22:00 +3°C° 0 mm 5 mps 664 mmHg 76%
    23:00 +3°C° 0 mm 4 mps 664 mmHg 80%

    Day after tomorrow, 20 March, Wednesday

    Time Temperature Precipitation Wind Pressure Humidity
    00:00 +1°C° 0 mm 4 mps 664 mmHg 84%
    01:00 +1°C° 0 mm 4 mps 664 mmHg 86%
    02:00 +1°C° 0 mm 4 mps 664 mmHg 88%
    03:00 0°C° 0 mm 4 mps 663 mmHg 90%
    04:00 0°C° 0 mm 4 mps 663 mmHg 92%
    05:00 0°C° 0 mm 4 mps 663 mmHg 94%
    06:00 -1°C° 0 mm 4 mps 663 mmHg 95%
    07:00 +1°C° 0 mm 4 mps 664 mmHg 86%
    08:00 +2°C° 0 mm 5 mps 665 mmHg 77%
    09:00 +3°C° 0 mm 6 mps 665 mmHg 68%
    10:00 +4°C° 0 mm 6 mps 665 mmHg 64%
    11:00 +5°C° 0 mm 7 mps 665 mmHg 59%
    12:00 +5°C° 0 mm 7 mps 665 mmHg 55%
    13:00 +6°C° 0 mm 7 mps 664 mmHg 51%
    14:00 +8°C° 0 mm 7 mps 664 mmHg 47%
    15:00 +8°C° 0 mm 7 mps 664 mmHg 42%
    16:00 +6°C° 0 mm 7 mps 664 mmHg 47%
    17:00 +5°C° 0 mm 7 mps 664 mmHg 51%
    18:00 +4°C° 0 mm 7 mps 664 mmHg 56%
    19:00 +4°C° 0 mm 6 mps 664 mmHg 61%
    20:00 +3°C° 0 mm 6 mps 665 mmHg 65%
    21:00 +2°C° 0 mm 5 mps 665 mmHg 70%
    22:00 +1°C° 0 mm 5 mps 665 mmHg 75%
    23:00 +1°C° 0 mm 5 mps 665 mmHg 80%

    21 March, Thursday

    Time Temperature Precipitation Wind Pressure Humidity
    00:00 0°C° 0 mm 4 mps 664 mmHg 85%
    01:00 0°C° 0 mm 5 mps 664 mmHg 88%
    02:00 0°C° 0 mm 5 mps 664 mmHg 91%
    03:00 -1°C° 0 mm 5 mps 663 mmHg 94%
    04:00 -1°C° 0 mm 5 mps 664 mmHg 93%
    05:00 -1°C° 0 mm 5 mps 664 mmHg 91%
    06:00 -2°C° 0 mm 6 mps 664 mmHg 90%
    07:00 -1°C° 0 mm 6 mps 664 mmHg 85%
    08:00 +1°C° 0 mm 6 mps 664 mmHg 79%
    09:00 +2°C° 0 mm 6 mps 665 mmHg 74%
    10:00 +3°C° 0 mm 7 mps 664 mmHg 68%
    11:00 +5°C° 0 mm 7 mps 664 mmHg 63%
    12:00 +6°C° 0 mm 7 mps 664 mmHg 57%
    13:00 +6°C° 0 mm 8 mps 664 mmHg 57%
    14:00 +6°C° 0 mm 8 mps 663 mmHg 57%
    15:00 +7°C° 0 mm 9 mps 663 mmHg 57%
    16:00 +6°C° 0 mm 9 mps 663 mmHg 63%
    17:00 +5°C° 0 mm 9 mps 663 mmHg 69%
    18:00 +3°C° 0 mm 9 mps 663 mmHg 74%
    19:00 +4°C° 0.9 mm 8 mps 663 mmHg 78%
    20:00 +2°C° 0.9 mm 8 mps 663 mmHg 82%
    21:00 +2°C° 0.9 mm 8 mps 664 mmHg 86%
    22:00 +2°C° 0.4 mm 8 mps 664 mmHg 86%
    23:00 +2°C° 0.4 mm 9 mps 664 mmHg 87%

    22 March, Friday

    Time Temperature Precipitation Wind Pressure Humidity
    00:00 +2°C° 0.4 mm 9 mps 664 mmHg 87%
    01:00 +2°C° 0 mm 9 mps 663 mmHg 88%
    02:00 +2°C° 0 mm 8 mps 663 mmHg 89%
    03:00 +2°C° 0 mm 8 mps 663 mmHg 90%
    04:00 +2°C° 0 mm 8 mps 663 mmHg 90%
    05:00 +2°C° 0 mm 8 mps 663 mmHg 91%
    06:00 +2°C° 0 mm 8 mps 664 mmHg 91%
    07:00 +4°C° 0 mm 8 mps 664 mmHg 87%
    08:00 +5°C° 0 mm 8 mps 664 mmHg 84%
    09:00 +5°C° 0 mm 8 mps 665 mmHg 80%
    10:00 +8°C° 0 mm 7 mps 665 mmHg 73%
    11:00 +9°C° 0 mm 7 mps 665 mmHg 65%
    12:00 +11°C° 0 mm 7 mps 666 mmHg 58%
    13:00 +11°C° 0 mm 7 mps 665 mmHg 56%
    14:00 +11°C° 0 mm 7 mps 665 mmHg 53%
    15:00 +12°C° 0 mm 7 mps 665 mmHg 51%
    16:00 +11°C° 0 mm 7 mps 665 mmHg 55%
    17:00 +10°C° 0 mm 6 mps 665 mmHg 59%
    18:00 +9°C° 0 mm 6 mps 665 mmHg 62%
    19:00 +9°C° 0 mm 5 mps 666 mmHg 69%
    20:00 +8°C° 0 mm 4 mps 666 mmHg 75%
    21:00 +8°C° 0 mm 3 mps 667 mmHg 81%
    22:00 +7°C° 0 mm 2 mps 667 mmHg 84%
    23:00 +7°C° 0 mm 2 mps 667 mmHg 87%

    23 March, Saturday

    Time Temperature Precipitation Wind Pressure Humidity
    00:00 +7°C° 0 mm 1 mps 666 mmHg 91%
    01:00 +7°C° 0 mm 1 mps 666 mmHg 91%
    02:00 +6°C° 0 mm 1 mps 666 mmHg 92%
    03:00 +6°C° 0 mm 1 mps 666 mmHg 92%
    04:00 +6°C° 0 mm 1 mps 666 mmHg 92%
    05:00 +6°C° 0 mm 1 mps 667 mmHg 91%
    06:00 +6°C° 0 mm 1 mps 667 mmHg 90%
    07:00 +7°C° 0 mm 2 mps 667 mmHg 80%
    08:00 +8°C° 0 mm 3 mps 668 mmHg 70%
    09:00 +10°C° 0 mm 3 mps 668 mmHg 60%
    10:00 +11°C° 0 mm 3 mps 668 mmHg 54%
    11:00 +12°C° 0 mm 4 mps 668 mmHg 47%
    12:00 +14°C° 0 mm 4 mps 668 mmHg 41%
    13:00 +14°C° 0 mm 5 mps 668 mmHg 39%
    14:00 +14°C° 0 mm 5 mps 667 mmHg 36%
    15:00 +15°C° 0 mm 6 mps 667 mmHg 34%
    16:00 +14°C° 0 mm 6 mps 667 mmHg 36%
    17:00 +13°C° 0 mm 6 mps 667 mmHg 39%
    18:00 +11°C° 0 mm 6 mps 667 mmHg 41%
    19:00 +11°C° 0 mm 6 mps 667 mmHg 44%
    20:00 +10°C° 0 mm 7 mps 667 mmHg 47%
    21:00 +10°C° 0 mm 8 mps 667 mmHg 50%
    22:00 +9°C° 0.2 mm 8 mps 667 mmHg 53%
    23:00 +9°C° 0.2 mm 8 mps 667 mmHg 56%
    Show more